New Ulm, MN

1:59 AM CST on January 19, 2017 (GMT -0600)
New Ulm Municipal

Weather History for KULM - November, 2012

Change the Weather History Date:

Thursday, November 1, 2012

  Actual Average Record
Temperature  
Mean Temperature 39 °F -  
Max Temperature 46 °F 51 °F 83 °F (1950)
Min Temperature 32 °F 34 °F 10 °F (2006)
Degree Days  
Heating Degree Days 26    
Moisture  
Dew Point 29 °F    
Average Humidity 62    
Maximum Humidity 93    
Minimum Humidity 40    
Precipitation  
Precipitation 0.00 in - - ()
Sea Level Pressure  
Sea Level Pressure 29.99 in    
Wind  
Wind Speed 7 mph (NNW)    
Max Wind Speed 18 mph    
Max Gust Speed 22 mph    
Visibility 10 miles    
Events      
Averages and records for this station are not official NWS values.
T = Trace of Precipitation, MM = Missing Value Source: NWS Daily Summary

Daily Weather History Graph

Daily Weather History Graph

Search for Another Location

Airport or City:

Trip Planner

Search our weather history database for the weather conditions in past years. The results will help you decide how hot, cold, wet, or windy it might be!

Date:

Astronomy

Nov. 01, 2012 Rise Set
Actual Time 7:55 AM CDT 6:06 PM CDT
Civil Twilight 7:25 AM CDT 6:36 PM CDT
Nautical Twilight 6:51 AM CDT 7:11 PM CDT
Astronomical Twilight 6:17 AM CDT 7:44 PM CDT
Moon 7:59 PM CDT (11/1) 10:33 AM CDT (11/1)
Length of Visible Light 11h 11m
Length of Day
10h 10m
Waning Gibbous, 93% of the Moon is Illuminated
Nov 1
Waning Gibbous
Nov 6
Last Quarter
Nov 13
New
Nov 20
First Quarter
Nov 28
Full

Hourly Weather History & Observations

Time (CDT) Temp. Windchill Dew Point Humidity Pressure Visibility Wind Dir Wind Speed Gust Speed Precip Events Conditions
12:13 AM 44.6 °F - 28.4 °F 53% 29.93 in 10.0 mi Calm Calm - N/A   Overcast
12:32 AM 44.6 °F - 30.2 °F 57% 29.93 in 10.0 mi Calm Calm - N/A   Overcast
12:53 AM 44.6 °F - 30.2 °F 57% 29.93 in 10.0 mi Calm Calm - N/A   Overcast
1:13 AM 44.6 °F - 30.2 °F 57% 29.93 in 10.0 mi Calm Calm - N/A   Overcast
1:32 AM 42.8 °F - 33.8 °F 70% 29.93 in 10.0 mi Calm Calm - N/A   Overcast
1:53 AM 44.6 °F - 32.0 °F 61% 29.93 in 10.0 mi Calm Calm - N/A   Overcast
2:13 AM 44.6 °F - 33.8 °F 66% 29.94 in 10.0 mi Calm Calm - N/A   Overcast
2:32 AM 42.8 °F 41.1 °F 32.0 °F 66% 29.94 in 10.0 mi West 3.5 mph - N/A   Overcast
2:53 AM 42.8 °F - 33.8 °F 70% 29.94 in 10.0 mi Calm Calm - N/A   Overcast
3:13 AM 44.6 °F 40.7 °F 30.2 °F 57% 29.94 in 10.0 mi WNW 6.9 mph - N/A   Overcast
3:32 AM 44.6 °F 39.2 °F 32.0 °F 61% 29.94 in 10.0 mi NW 10.4 mph - N/A   Overcast
3:53 AM 44.6 °F 38.4 °F 33.8 °F 66% 29.94 in 10.0 mi NW 12.7 mph - N/A   Overcast
4:13 AM 46.4 °F 41.1 °F 35.6 °F 66% 29.94 in 10.0 mi NW 11.5 mph - N/A   Overcast
4:33 AM 46.4 °F 40.1 °F 35.6 °F 66% 29.94 in 10.0 mi NNW 15.0 mph - N/A   Overcast
4:53 AM 44.6 °F 37.8 °F 37.4 °F 76% 29.95 in 10.0 mi NNW 15.0 mph - N/A   Scattered Clouds
5:13 AM 42.8 °F 35.1 °F 37.4 °F 81% 29.96 in 10.0 mi NNW 16.1 mph - N/A   Clear
5:33 AM 42.8 °F 35.4 °F 37.4 °F 81% 29.96 in 10.0 mi NNW 15.0 mph - N/A   Clear
5:53 AM 41.0 °F 35.2 °F 37.4 °F 87% 29.98 in 10.0 mi NW 9.2 mph - N/A   Clear
6:13 AM 39.2 °F 33.0 °F 35.6 °F 87% 29.99 in 10.0 mi NW 9.2 mph - N/A   Clear
6:33 AM 39.2 °F 32.5 °F 37.4 °F 93% 29.99 in 10.0 mi NW 10.4 mph - N/A   Mostly Cloudy
6:53 AM 41.0 °F 34.7 °F 37.4 °F 87% 29.99 in 10.0 mi NW 10.4 mph - N/A   Overcast
7:12 AM 41.0 °F 34.3 °F 37.4 °F 87% 29.99 in 10.0 mi NW 11.5 mph - N/A   Scattered Clouds
7:33 AM 41.0 °F 34.3 °F 37.4 °F 87% 29.99 in 10.0 mi NW 11.5 mph - N/A   Mostly Cloudy
7:53 AM 42.8 °F 36.2 °F 37.4 °F 81% 29.99 in 10.0 mi NNW 12.7 mph - N/A   Overcast
8:12 AM 42.8 °F 36.2 °F 35.6 °F 76% 30.00 in 10.0 mi North 12.7 mph 19.6 mph N/A   Mostly Cloudy
8:33 AM 42.8 °F 38.0 °F 33.8 °F 70% 30.00 in 10.0 mi North 8.1 mph 16.1 mph N/A   Mostly Cloudy
8:53 AM 42.8 °F 38.0 °F 33.8 °F 70% 30.00 in 10.0 mi North 8.1 mph 16.1 mph N/A   Overcast
9:12 AM 42.8 °F 37.0 °F 33.8 °F 70% 30.01 in 10.0 mi NNW 10.4 mph - N/A   Overcast
9:33 AM 42.8 °F 38.0 °F 33.8 °F 70% 30.01 in 10.0 mi NNW 8.1 mph - N/A   Overcast
9:53 AM 42.8 °F 37.5 °F 33.8 °F 70% 30.02 in 10.0 mi NNW 9.2 mph 17.3 mph N/A   Overcast
10:12 AM 42.8 °F 35.8 °F 32.0 °F 66% 30.01 in 10.0 mi NNW 13.8 mph 19.6 mph N/A   Overcast
10:33 AM 44.6 °F 38.1 °F 32.0 °F 61% 30.01 in 10.0 mi NNW 13.8 mph 19.6 mph N/A   Overcast
10:53 AM 44.6 °F 39.2 °F 32.0 °F 61% 30.02 in 10.0 mi North 10.4 mph - N/A   Mostly Cloudy
11:12 AM 44.6 °F 37.8 °F 32.0 °F 61% 30.02 in 10.0 mi NNW 15.0 mph - N/A   Mostly Cloudy
11:33 AM 44.6 °F 38.4 °F 32.0 °F 61% 30.02 in 10.0 mi NNW 12.7 mph 16.1 mph N/A   Mostly Cloudy
11:53 AM 44.6 °F 38.4 °F 32.0 °F 61% 30.02 in 10.0 mi North 12.7 mph 18.4 mph N/A   Mostly Cloudy
12:12 PM 44.6 °F 39.2 °F 30.2 °F 57% 30.02 in 10.0 mi NNW 10.4 mph - N/A   Scattered Clouds
12:53 PM 44.6 °F 38.4 °F 28.4 °F 53% 30.00 in 10.0 mi NNW 12.7 mph 20.7 mph N/A   Clear
1:12 PM 46.4 °F 39.8 °F 28.4 °F 50% 30.00 in 10.0 mi NNW 16.1 mph 21.9 mph N/A   Clear
1:33 PM 46.4 °F 42.4 °F 28.4 °F 50% 29.99 in 10.0 mi North 8.1 mph 16.1 mph N/A   Clear
1:53 PM 46.4 °F 40.4 °F 28.4 °F 50% 30.00 in 10.0 mi NNW 13.8 mph 20.7 mph N/A   Clear
2:12 PM 46.4 °F 41.1 °F 28.4 °F 50% 29.98 in 10.0 mi North 11.5 mph 15.0 mph N/A   Clear
2:33 PM 46.4 °F 39.2 °F 28.4 °F 50% 29.98 in 10.0 mi NW 18.4 mph - N/A   Clear
2:53 PM 46.4 °F 41.1 °F 26.6 °F 46% 29.98 in 10.0 mi NNW 11.5 mph 21.9 mph N/A   Clear
3:12 PM 46.4 °F 39.5 °F 26.6 °F 46% 29.98 in 10.0 mi NW 17.3 mph 21.9 mph N/A   Clear
3:52 PM 46.4 °F 40.7 °F 26.6 °F 46% 29.97 in 10.0 mi NNW 12.7 mph 19.6 mph N/A   Clear
4:13 PM 46.4 °F 40.4 °F 24.8 °F 43% 29.98 in 10.0 mi NW 13.8 mph - N/A   Clear
4:52 PM 46.4 °F 40.7 °F 23.0 °F 40% 29.99 in 10.0 mi NNW 12.7 mph - N/A   Clear
5:13 PM 44.6 °F 38.4 °F 24.8 °F 46% 29.99 in 10.0 mi NNW 12.7 mph - N/A   Clear
5:33 PM 44.6 °F 38.8 °F 23.0 °F 43% 29.99 in 10.0 mi NNW 11.5 mph - N/A   Clear
5:52 PM 42.8 °F 40.1 °F 24.8 °F 49% 29.99 in 10.0 mi North 4.6 mph - N/A   Clear
6:13 PM 42.8 °F 38.6 °F 23.0 °F 46% 29.99 in 10.0 mi NNW 6.9 mph - N/A   Clear
6:33 PM 41.0 °F 35.8 °F 23.0 °F 49% 30.00 in 10.0 mi NNW 8.1 mph - N/A   Clear
6:52 PM 41.0 °F 35.8 °F 23.0 °F 49% 30.00 in 10.0 mi NNW 8.1 mph - N/A   Clear
7:13 PM 39.2 °F 35.9 °F 23.0 °F 52% 30.01 in 10.0 mi North 4.6 mph - N/A   Clear
7:33 PM 39.2 °F - 23.0 °F 52% 30.01 in 10.0 mi Calm Calm - N/A   Clear
7:52 PM 39.2 °F 35.9 °F 23.0 °F 52% 30.01 in 10.0 mi North 4.6 mph - N/A   Clear
8:13 PM 37.4 °F 34.9 °F 21.2 °F 52% 30.01 in 10.0 mi North 3.5 mph - N/A   Clear
8:33 PM 37.4 °F 34.9 °F 21.2 °F 52% 30.02 in 10.0 mi North 3.5 mph - N/A   Clear
8:52 PM 37.4 °F 31.4 °F 21.2 °F 52% 30.02 in 10.0 mi NNE 8.1 mph - N/A   Clear
9:13 PM 35.6 °F 28.6 °F 23.0 °F 60% 30.02 in 10.0 mi NE 9.2 mph 17.3 mph N/A   Clear
9:33 PM 35.6 °F 28.6 °F 23.0 °F 60% 30.03 in 10.0 mi NNE 9.2 mph - N/A   Clear
9:52 PM 35.6 °F 29.2 °F 23.0 °F 60% 30.03 in 10.0 mi NNE 8.1 mph - N/A   Clear
10:13 PM 33.8 °F 27.7 °F 23.0 °F 65% 30.04 in 10.0 mi NNE 6.9 mph - N/A   Clear
10:33 PM 33.8 °F 28.6 °F 23.0 °F 65% 30.04 in 10.0 mi NE 5.8 mph - N/A   Clear
10:53 PM 33.8 °F 28.6 °F 23.0 °F 65% 30.04 in 10.0 mi NE 5.8 mph - N/A   Clear
11:13 PM 33.8 °F 29.6 °F 23.0 °F 65% 30.05 in 10.0 mi NE 4.6 mph - N/A   Clear
11:33 PM 32.0 °F 27.5 °F 23.0 °F 69% 30.05 in 10.0 mi NE 4.6 mph - N/A   Clear
11:53 PM 32.0 °F - 23.0 °F 69% 30.06 in 10.0 mi Calm Calm - N/A   Clear